Find STARLINK-38045

NORAD ID: 799501187 Int'l Des: 2026-160K Constellation: starlink operational

当前视图

正在加载3D地球...

About STARLINK-38045

STARLINK-38045 (NORAD 799501187) is a starlink constellation satellite launched Jul 9, 2026

关于 STARLINK-38045

正在加载描述...

即将过境

Passes for default location (London). Set your location on the main map for personalized predictions.

高度历史

Loading altitude history...

两行轨道根数

1 99999C 2026160K 26195.41368056 .00463890 00000-0 601100-4 0 1958
2 99999 70.0024 28.5423 0009861 259.2177 102.4553 16.06515935 13
Epoch: Jul 14, 2026 • Age: 7 hours